COSMOS 2251 DEB, 35835

Orbit data source: Space-Track

COSMOS 2251 DEB, 35835 is space debris in LEO originally from a launch on Wed, 16 Jun 1993 UTC launched from the Plesetsk Missile And Space Complex (PKMTR). The debris from Iridium 33, an American commercial communications satellite, has been tracked extensively since its accidental collision with the defunct Russian satellite Cosmos 2251 in 2009. This event, occurring at high speed in low Earth orbit (LEO), generated thousands of pieces of space debris, significantly increasing the risk of further collisions. The Iridium 33 debris cloud has impacted space traffic management and orbital debris mitigation strategies, making it a subject of ongoing study in space situational awareness.

Loading next visibility...
Identifier
35835, 1993-036ATH
Orbit
LEO
Country
Flag of CISCIS
Related business
Manufacturer
Unknown
Mission
Spacecraft
Bus & Motor
Unknown
Mass
Unknown
Launch date (UTC)
1993-06-16 (33 years ago)
Launch vehicle
Unknown
Launch site
Plesetsk Missile And Space Complex (PKMTR)
Object type
Payload
Rocket body
Debris
Shape & HBR
Unknown shape, 0.1 m
Radar Cross Section
Small (<0.1 m²)

Expand to show TLE details & history
Last TLE update: 22 hours ago

TLE from 22 hours ago
0 COSMOS 2251 DEB
1 35835U 93036ATH 26035.11360551  .00001518  00000-0  10122-2 0  9996
2 35835  74.0628 178.6819 0293534 308.2243  49.2783 13.83087473624370
Epoch: 2026-02-04T02:43Z
TLE epoch observation values (Epoch: 2026-02-04T02:43:35.516Z)
Latitude
0.00003°
Longitude
3.49908°
Altitude
818.834 km
Speed
7.513 km/s
True Right ascension
11h 54m 43s
True Declination
0° 00' 00"
Sunlit
Object was in full shadow at epoch
Visualization orbit readout
Latitude
Unknown
Longitude
Unknown
Altitude
Unknown
Speed
Unknown
Apparent Right ascension
Unknown
Apparent Declination
Unknown
Sunlit
N/A
Visualization observer readout
Local Sidereal Time
02:51:43
Azimuth
Unknown
Elevation
Unknown
Doppler factor
Unknown
Orbital elements
Apogee altitude
1,165.758 km
Perigee altitude
735.51 km
Semi-major axis
7,328.771 km
Eccentricity
0.02935
Inclination
74.0628°
RAAN
178.6819°
Arg. of periapsis
308.2243°
True anomaly
51.88912°
Mean anomaly
49.2783°
Eccentric anomaly
50.57748°
Mean motion
3.45937 °/min
Orbital period
104.07 mins
BSTAR
0.0010122
Loading maneuver chart data...
Computing Atmospheric mass density...

Documentation

Showing up to 5 results
|